This is the latest recevied weather packets stored in our database for station/object K0APR. If no packets are shown the sender has not sent any weather packets the latest 10 day(s).
| Time | Temp. | Humidity | Pressure | Rain* | Wind** | Luminosity | Snow |
|---|---|---|---|---|---|---|---|
| 1777390281 | 6.67° C | 69% | 1018.3 hPa | 0 mm | - | 543 W/m² | - |
| 1777389976 | 6.67° C | 67% | 1018.3 hPa | 0 mm | - | 532 W/m² | - |
| 1777389371 | 6.67° C | 68% | 1018.3 hPa | 0 mm | - | 424 W/m² | - |
| 1777389068 | 6.11° C | 67% | 1018.3 hPa | 0 mm | - | 462 W/m² | - |
| 1777388161 | 6.11° C | 68% | 1018.3 hPa | 0 mm | - | 460 W/m² | - |
| 1777386945 | 5.56° C | 68% | 1018.3 hPa | 0 mm | - | 377 W/m² | - |
| 1777386643 | 5.56° C | 70% | 1018.3 hPa | 0 mm | - | 348 W/m² | - |
| 1777385733 | 5° C | 70% | 1018.3 hPa | 0 mm | - | 290 W/m² | - |
| 1777385431 | 5° C | 71% | 1018.3 hPa | 0 mm | - | 277 W/m² | - |
| 1777384823 | 5° C | 71% | 1017.9 hPa | 0 mm | - | 242 W/m² | - |
| 1777383607 | 4.44° C | 70% | 1017.9 hPa | 0 mm | - | 183 W/m² | - |
| 1777383000 | 4.44° C | 72% | 1017.9 hPa | 0 mm | - | 203 W/m² | - |
| 1777382392 | 3.89° C | 75% | 1017.2 hPa | 0 mm | - | 193 W/m² | - |
| 1777381785 | 3.89° C | 76% | 1017.2 hPa | 0 mm | - | 161 W/m² | - |
| 1777381181 | 3.89° C | 77% | 1017.5 hPa | 0 mm | - | 125 W/m² | - |
| 1777378749 | 3.33° C | 76% | 1016.5 hPa | 0 mm | - | 43 W/m² | - |
| 1777377841 | 2.78° C | 77% | 1016.5 hPa | 0 mm | - | 30 W/m² | - |
| 1777377541 | 2.78° C | 78% | 1016.5 hPa | 0 mm | - | 26 W/m² | - |
| 1777375418 | 2.78° C | 79% | 1015.1 hPa | 0 mm | - | 3 W/m² | - |
| 1777373601 | 2.78° C | 80% | 1015.5 hPa | 0 mm | - | 0 W/m² | - |
| 1777372688 | 2.78° C | 80% | 1015.5 hPa | 0 mm | - | 0 W/m² | - |
| 1777372387 | 2.78° C | 80% | 1015.5 hPa | 0 mm | - | 0 W/m² | - |
| 1777372086 | 2.78° C | 81% | 1015.5 hPa | 0 mm | - | 0 W/m² | - |
| 1777371782 | 2.78° C | 80% | 1015.5 hPa | 0 mm | - | 0 W/m² | - |
| 1777371479 | 3.33° C | 80% | 1015.5 hPa | 0 mm | - | 0 W/m² | - |
* Rain latest hour (hover to see other rain measurements)
** Current wind speed in m/s (hover to see current wind gust speed)